CDT,Max TemperatureF,Mean TemperatureF,Min TemperatureF,Max Dew PointF,MeanDew PointF,Min DewpointF,Max Humidity, Mean Humidity, Min Humidity, Max Sea Level PressureIn, Mean Sea Level PressureIn, Min Sea Level PressureIn, Max VisibilityMiles, Mean VisibilityMiles, Min VisibilityMiles, Max Wind SpeedMPH, Mean Wind SpeedMPH, Max Gust SpeedMPH,PrecipitationIn, CloudCover, Events, WindDirDegrees
2012-10-1,78,66,55,64,57,52,100,77,41,29.98,29.93,29.86,10,10,5,16,3,25,0.07,1,Rain-Thunderstorm,326
2012-10-2,77,65,53,55,50,43,94,64,32,30.06,30.00,29.96,10,10,10,18,4,25,0.00,0,,337
2012-10-3,80,65,50,61,53,48,94,69,41,30.05,30.01,29.97,10,10,10,16,3,21,0.00,0,,154
2012-10-4,87,76,64,70,66,61,94,73,46,30.14,30.08,30.05,10,10,7,17,9,25,0.00,4,,153
2012-10-5,84,73,62,72,63,55,100,71,39,30.14,30.08,30.01,10,10,7,16,9,21,0.00,3,,158
2012-10-6,77,66,53,64,59,46,100,80,61,30.15,30.06,30.02,10,10,2,14,5,20,0.00,6,,58
2012-10-7,53,48,44,48,43,41,93,81,67,30.24,30.19,30.15,10,10,7,14,10,21,0.00,8,Rain,11
2012-10-8,71,58,44,52,45,39,87,69,49,30.25,30.17,30.08,10,10,10,10,5,,0.00,7,,41
2012-10-9,77,68,59,63,57,50,94,74,57,30.10,30.03,29.97,10,10,7,18,9,24,0.00,5,,181
2012-10-10,82,70,59,70,66,55,94,78,51,30.16,30.08,30.02,10,7,3,12,5,16,0.00,6,Rain,146
2012-10-11,84,78,71,72,68,64,94,79,54,30.16,30.11,30.06,10,10,5,16,9,22,0.00,6,Rain,149
2012-10-12,82,76,71,70,66,63,88,74,51,30.20,30.14,30.08,10,10,10,18,11,23,0.00,6,,148
2012-10-13,80,76,71,72,69,68,94,81,69,30.13,30.02,29.92,10,9,4,18,14,25,0.04,7,Rain-Thunderstorm,159
2012-10-14,80,70,60,72,60,46,94,70,30,30.14,30.07,29.99,10,10,1,14,7,20,0.44,3,Rain-Thunderstorm,47
2012-10-15,77,66,55,59,53,46,94,68,38,30.17,30.10,30.03,10,10,10,9,1,,0.00,0,,117
2012-10-16,71,66,60,68,60,52,94,82,68,30.03,29.92,29.82,10,10,5,9,2,,0.02,7,Rain,164
2012-10-17,91,78,62,68,61,50,100,67,24,29.83,29.77,29.67,10,9,3,13,7,18,0.00,3,,194
2012-10-18,77,65,53,55,41,32,88,45,21,30.02,29.93,29.81,10,10,10,14,4,22,0.00,0,,50
2012-10-19,78,58,39,46,36,21,93,52,12,30.09,30.02,29.96,10,10,10,12,3,16,0.00,0,,141
2012-10-20,82,66,50,68,61,41,88,78,58,29.97,29.91,29.83,10,10,7,15,5,21,0.00,4,,163
2012-10-21,86,78,71,70,66,63,88,71,48,29.98,29.92,29.88,10,10,7,21,11,26,0.00,4,,164
2012-10-22,84,76,68,70,64,59,94,68,45,30.02,29.96,29.92,10,10,10,20,13,29,0.00,4,,154
2012-10-23,78,73,68,70,67,63,88,83,69,30.01,29.97,29.94,10,10,7,17,10,23,0.00,6,,154
2012-10-24,82,75,68,66,62,55,88,72,39,30.03,29.96,29.89,10,10,10,17,11,23,0.00,4,,157
2012-10-25,82,72,62,68,63,50,88,72,54,30.05,29.91,29.86,10,10,10,16,11,23,0.00,6,,161
2012-10-26,60,52,44,50,41,32,93,67,50,30.28,30.16,30.05,10,9,1,20,11,26,1.00,8,Rain-Thunderstorm,356
2012-10-27,59,52,44,36,31,27,57,48,33,30.30,30.23,30.15,10,10,10,15,8,20,0.00,7,,3
2012-10-28,62,52,41,41,33,27,87,49,27,30.29,30.22,30.17,10,10,10,8,2,,0.00,3,,27
2012-10-29,68,50,33,41,36,32,93,67,30,30.30,30.22,30.14,10,10,7,8,1,,0.00,0,,152
2012-10-30,73,55,37,54,46,36,94,76,47,30.14,30.07,29.99,10,10,10,13,2,18,0.00,0,,168
2012-10-31,78,62,46,63,53,45,94,78,39,30.12,30.06,30.02,10,9,0,6,1,,0.00,2,Fog,129